Preview of NWS' New Version of Forecast
This preview is not operational and should not be used for support decisions.

Regional Weather Roundup (RWR)

Issued by National Weather Service (NWS)

                            
000
ASUS42 KTBW 202116
RWRFL 
FLORIDA REGIONAL WEATHER ROUNDUP
NATIONAL WEATHER SERVICE TAMPA BAY RUSKIN FL
500 PM EDT MON MAY 20 2019

NOTE: "FAIR" INDICATES FEW OR NO CLOUDS BELOW 12,000 FEET WITH NO
SIGNIFICANT WEATHER AND/OR OBSTRUCTIONS TO VISIBILITY.

FLZ001>010-012>015-112-114-115-202200-
PANHANDLE FLORIDA
  
CITY           SKY/WX    TMP DP  RH WIND       PRES   REMARKS
PENSACOLA      FAIR      85  74  69 S13       29.97F                  
PENSACOLA NAS  FAIR      84  75  74 S13       29.97F                  
MILTON NAS     FAIR      87  71  58 S9        29.97F                  
CRESTVIEW      FAIR      90  67  46 SW9       29.98F                  
PANAMA CITY    FAIR      87  64  46 S12       29.96F                  
TYNDALL AFB    FAIR      84  68  58 SW12      29.97F                  
APALACHICOLA   FAIR      85  63  47 S10       29.99F                  

STATION/POSITION SKY/WX   TEMP    WIND        PRES    WAVE   SWELL
                          AIR SEA DIR/SP/G            HT/PER HT/PER
                          (F)     (DEG/KT/KT) (MB)    (FT/S) (FT/S)
30.1N   87.6W                                   N/A     2/ 6
29.2N   88.2W                      90/  8/  8 1015.7F   2/ 6   2/ 6
PANAMA CITY BEAC           80 82  240/ 10/ 11 1015.6F
TOWER C          NOT AVBL

$$
FLZ011-016>038-118-127-128-134-139-239-202200-
NORTH FLORIDA
  
CITY           SKY/WX    TMP DP  RH WIND       PRES   REMARKS
MARIANNA       FAIR      92  60  34 NE7       29.95F                  
TALLAHASSEE    FAIR      91  60  35 NW3       29.96F                  
PERRY          FAIR      92  56  30 SW13      29.97F                  
LIVE OAK       SUNNY     90  59  35 CALM      29.95F                  
CROSS CITY     FAIR      90  60  36 W10       29.96F                  
GAINESVILLE    PTSUNNY   92  60  34 CALM      29.97F                  
WILLISTON      FAIR      90  60  36 CALM      29.95S                  
PALATKA        FAIR      91  68  46 SE15      29.96R HX  95           
MAYPORT NAS    PTSUNNY   83  69  62 SE14      29.97F                  
JACKSONVILLE   FAIR      88  66  48 E12       29.95F                  
JAX NAS        PTSUNNY   86  68  54 E15       29.96S                  
JAX CECIL      MOSUNNY   91  68  46 E12       29.94F HX  95           
FERNANDINA BEA FAIR      82  71  68 SE13      29.97F                  
ST AUGUSTINE   LGT RAIN  83  71  67 SE14      29.99S                  
PALM COAST     SUNNY     84  66  54 E14       29.97F                  

STATION/POSITION SKY/WX   TEMP    WIND        PRES    WAVE   SWELL
                          AIR SEA DIR/SP/G            HT/PER HT/PER
                          (F)     (DEG/KT/KT) (MB)    (FT/S) (FT/S)
SHELL POINT      NOT AVBL
KEATON BEACH               83     270/  9/ 11 1015.3F
CEDAR KEY                  83     310/  9/ 11 1015.0F
FERNANDINA                 85 83  120/  8/ 11 1015.5F
30.7N   81.3W                 80                N/A     2/15
MAYPORT                    81 81  130/  7/ 14 1015.3F
31.4N   80.9W              78 78  160/ 12/ 14 1014.9F   2/ 5   2/ 6
ST AUGUSTINE               79 83  130/ 13/ 14 1015.3F

$$
FLZ040-043>046-052-053-057-058-063-144-202200-
INTERIOR CENTRAL FLORIDA
  
CITY           SKY/WX    TMP DP  RH WIND       PRES   REMARKS
OCALA          FAIR      90  64  42 E7        29.95F                  
LEESBURG       FAIR      90  63  40 VRB5      29.96F                  
SANFORD        FAIR      88  68  51 E8        29.96F                  
ORLANDO EXEC   PTSUNNY   88  66  48 SE10      29.96F                  
ORLANDO INTL   FAIR      87  66  49 NE7       29.96F                  
KISSIMMEE      FAIR      88  68  51 SE7       29.97S                  
WINTER HAVEN   FAIR      93  59  31 E9        29.96F                  
LAKELAND       MOSUNNY   91  61  35 NE6       29.95F                  
BARTOW         MOSUNNY   91  61  35 NE8       29.94F                  
SEBRING        FAIR      90  68  48 E14       29.95F                  
OKEECHOBEE     PTSUNNY   82  70  65 SE9       29.96S                  

$$
FLZ041-047-054-059-064-141-147-202200-
EAST CENTRAL FLORIDA
  
CITY           SKY/WX    TMP DP  RH WIND       PRES   REMARKS
ORMOND BEACH   SUNNY     84  68  58 SE9       29.98F                  
DAYTONA BEACH  FAIR      84  69  60 E9        29.98F                  
DELAND         PTSUNNY   88  66  48 E12       29.96F                  
NEW SMYRNA BEA MOSUNNY   84  72  65 SE13      29.99F                  
JFK SPACE CTR  FAIR      84  72  66 E10       29.97F                  
TITUSVILLE     MOSUNNY   90  68  48 SE12      29.98F                  
MELBOURNE      FAIR      84  71  65 E16       29.97F                  
VERO BEACH     FAIR      83  70  64 E13       29.98F                  
FT PIERCE      FAIR      84  68  58 E14       29.98S                  
STUART         MOSUNNY   84  68  58 E12       29.99F                  

STATION/POSITION SKY/WX   TEMP    WIND        PRES    WAVE   SWELL
                          AIR SEA DIR/SP/G            HT/PER HT/PER
                          (F)     (DEG/KT/KT) (MB)    (FT/S) (FT/S)
28.5N   80.2W              80     120/  8/ 10 1016.1F   2/ 6   2/ 6
28.9N   78.5W              78 79  110/  8/ 10 1016.7F
TRIDENT PIER               83 83   90/  8/ 14 1016.8F
28.4N   80.5W                 81                N/A     2/ 6
27.5N   80.2W                 81                N/A     2/ 7

$$
FLZ050-056-061-142-242-148-248-149-249-151-251-155-255-
160-260-202200-
WEST CENTRAL FLORIDA
  
CITY           SKY/WX    TMP DP  RH WIND       PRES   REMARKS
CRYSTAL RIVER  FAIR      88  68  51 NW7       29.96F                  
INVERNESS      FAIR      90  64  43 CALM      29.96S                  
BROOKSVILLE    FAIR      91  66  43 W7        29.96F                  
CLEARWATER AIR FAIR      86  66  51 NW9       29.96S                  
ST PETE CLEARW FAIR      88  63  43 NW10      29.95F                  
TAMPA INTL     FAIR      89  65  44 NW10      29.95F                  
TAMPA EXEC     FAIR      90  66  45 CALM      29.95F                  
PLANT CITY     FAIR      91  57  31 CALM      29.96F                  
MACDILL AFB    FAIR      90  66  44 NW5       29.94F                  
PETER O KNIGHT CLOUDY    91  68  46 W6        29.95F HX  95           
ST PETERSBURG  FAIR      87  68  52 N3        29.93F                  
SARASOTA       FAIR      88  73  61 W14       29.93F HX  95           
VENICE         FAIR      86  75  70 W12       29.96F HX  95           

STATION/POSITION SKY/WX   TEMP    WIND        PRES    WAVE   SWELL
                          AIR SEA DIR/SP/G            HT/PER HT/PER
                          (F)     (DEG/KT/KT) (MB)    (FT/S) (FT/S)
27.3N   84.2W                 80                N/A     1/ 7
CLEARWATER BEACH           82 85  310/ 11/ 12 1014.7F
MIDDLE TAMPA BAY           83     310/ 13/ 14 1014.2F
VENICE                     82 82  290/  8/  9 1014.2F

$$
FLZ066-069-070-075>078-162-262-165-265-202200-
SOUTHWEST FLORIDA AND KEYS
  
CITY           SKY/WX    TMP DP  RH WIND       PRES   REMARKS
PUNTA GORDA    FAIR      89  61  38 CALM      29.95F                  
FT MYERS       FAIR      89  67  47 NW7       29.92F                  
SOUTHWEST INTL PTSUNNY   93  62  35 NE3       29.93F                  
NAPLES         FAIR      86  73  65 W9        29.93F                  
MARCO ISLAND   FAIR      88  72  58 W8        29.95F                  
IMMOKALEE      FAIR      93  66  40 E13       29.91F HX  96           
MARATHON       FAIR      89  72  56 VRB7      29.95F HX  96           
KEY WEST NAS   FAIR      88  71  57 E9        29.94F                  
KEY WEST INTL  PTSUNNY   84  71  65 SE9       29.94F                  

STATION/POSITION SKY/WX   TEMP    WIND        PRES    WAVE   SWELL
                          AIR SEA DIR/SP/G            HT/PER HT/PER
                          (F)     (DEG/KT/KT) (MB)    (FT/S) (FT/S)
NAPLES                     87 85              1013.9F
DRY TORTUGAS               82      70/  9/ 11 1014.3F
SAND KEY                   82                 1014.0F
SOMBRERO KEY               81                 1013.5F

$$
FLZ067-068-071>074-168-172>174-202200-
SOUTHEAST FLORIDA 
  
CITY           SKY/WX    TMP DP  RH WIND       PRES   REMARKS
W PALM BEACH   PTSUNNY   86  70  58 E14       29.98S                  
BOCA RATON     MOSUNNY   86  72  62 E12       29.97F                  
FT LAUDER-EXEC FAIR      84  69  60 E12       29.96F                  
FT LAUDERDALE  PTSUNNY   83  70  64 E13       29.96F                  
POMPANO BEACH  FAIR      85  70  60 E12       29.97F                  
PEMBROKE PINES PTSUNNY   82  68  62 E12       29.97F                  
OPA LOCKA      FAIR      85  70  60 E13       29.97S                  
MIAMI          PTSUNNY   84  71  65 E12       29.96F                  
WEST KENDALL   FAIR      85  69  58 E12       29.96S                  
HOMESTEAD      FAIR      85  71  61 E12       29.95F                  

STATION/POSITION SKY/WX   TEMP    WIND        PRES    WAVE   SWELL
                          AIR SEA DIR/SP/G            HT/PER HT/PER
                          (F)     (DEG/KT/KT) (MB)    (FT/S) (FT/S)
PORT EVERGLADES            83      80/  6/  9 1015.0
VIRGINIA KEY               81 85   50/  8/ 11 1014.2F
LAKE WORTH                 80 83              1016.2F
SETTLEMENT POINT           80     100/  8/  9 1015.7F

$$